Location: Unspecified
(51.5147°N, 7.4673°E)
Time: 10:04:26
(UTC+01:00)

S-56A Canister/Altair - Visible Passes

Search period start: 17 February 2026 00:00
Search period end: 27 February 2026 00:00
Orbit: 632 x 2485 km, 38.9° (Epoch: 16 February)

Date Brightness Start Highest point End Pass type
(mag) Time Alt. Az. Time Alt. Az. Time Alt. Az.
17 Feb 10.8 02:30:50 18° ESE 02:30:50 18° ESE 02:33:39 10° ESE visible
17 Feb 9.9 04:28:05 32° SSW 04:28:05 32° SSW 04:38:18 10° SE visible
17 Feb 10.6 06:25:21 11° WSW 06:31:43 19° SSW 06:39:39 10° S visible
18 Feb 10.1 03:55:13 30° SSE 03:55:13 30° SSE 04:02:42 10° SE visible
18 Feb 10.4 05:52:28 16° WSW 05:56:33 20° SSW 06:04:40 10° S visible
19 Feb 10.4 03:22:22 23° SSE 03:22:22 23° SSE 03:27:05 10° SE visible
19 Feb 10.3 05:19:38 20° SW 05:21:26 21° SSW 05:29:33 10° SSE visible
20 Feb 10.8 02:49:35 15° SE 02:49:35 15° SE 02:51:28 10° SE visible
20 Feb 10.3 04:46:52 22° SSW 04:46:52 22° SSW 04:54:20 10° SSE visible
21 Feb 10.4 04:14:08 20° S 04:14:08 20° S 04:19:03 10° SSE visible
22 Feb 10.7 03:41:28 15° SSE 03:41:28 15° SSE 03:43:44 10° SSE visible
23 Feb 10.8 05:06:08 10° SSW 05:06:08 10° SSW 05:06:17 10° SSW visible
